Vorticity
17 16 16 15 16 17 18 20 20 19 17 12 10 10 13 10 11 8 4 7 8 5 5 7 7 14 10 9 8 -1 3 7 7 5 4 8 10 6 3 4 5 1 2 2 1 1 -11 5 7 9 10 27 46 18
18 15 14 17 15 12 9 14 19 18 15 13 12 12 10 11 8 5 5 6 7 5 3 4 7 5 13 9 7 12 9 5 7 5 3 3 8 7 9 13 9 8 4 5 3 4 3 -3 4 18 17 14 18 33
16 12 11 12 13 13 13 14 13 12 12 11 10 10 9 8 8 9 9 7 13 9 4 5 2 -2 4 11 8 10 10 15 13 10 7 3 2 5 7 5 10 6 8 4 5 2 6 2 3 13 8 -13 52 7
9 10 9 8 9 11 9 13 14 15 15 14 14 15 15 15 15 13 7 13 11 11 11 11 7 14 12 13 11 13 17 13 15 11 11 8 8 5 5 6 3 4 7 6 7 3 7 7 7 2 29 4 14 66
16 18 20 21 22 27 22 17 14 12 11 9 10 13 15 14 14 19 22 24 22 18 12 8 8 10 10 5 8 6 7 12 16 5 11 15 12 15 12 11 9 1 5 7 9 5 9 8 5 6 11 10 5 13
23 19 13 12 13 15 17 20 22 22 22 20 22 19 15 18 25 16 10 10 19 23 27 21 26 23 18 11 8 8 -5 14 13 12 15 11 14 9 20 29 28 31 29 28 24 21 17 12 8 5 10 13 15 21
22 21 18 24 28 24 22 23 26 26 28 26 17 20 21 16 21 20 17 23 24 16 13 13 9 16 21 18 20 14 13 1 11 17 25 15 1 11 5 11 19 19 26 9 23 27 14 13 8 13 8 -11 12 16
10 13 16 16 19 16 22 23 22 31 34 33 47 26 13 15 17 12 24 17 13 11 19 19 25 6 10 12 20 32 5 15 20 -13 26 16 23 8 8 13 9 16 9 8 2 28 17 4 -4 12 5 14 9 4
2 5 16 14 17 20 19 43 40 25 39 45 46 30 5 11 23 20 16 10 12 14 18 19 19 51 1 22 41 23 8 -0 -18 17 9 10 21 27 2 -4 9 13 4 8 14 15 8 5 11 18 22 9 16 13
13 18 12 17 18 15 20 33 34 22 41 5 24 10 18 30 34 24 4 5 11 20 -22 15 13 20 23 5 24 4 19 0 20 -6 5 5 12 12 11 14 -40 17 11 9 8 -2 4 20 16 8 13 8 9 6
23 16 16 8 -10 18 17 -16 31 29 8 23 5 8 13 1 2 10 13 23 -2 11 12 22 9 -16 6 56 8 21 31 -1 5 10 2 11 -1 6 7 -4 30 10 21 16 16 5 27 18 13 4 13 8 12 9
-1 16 2 -6 -2 4 15 26 31 30 11 17 17 8 8 7 -3 -6 12 4 18 8 20 4 11 18 19 1 9 28 -10 10 17 -25 20 5 -9 7 22 20 -18 17 21 20 26 -5 17 14 2 11 20 9 11 11
12 11 21 7 -3 2 3 5 25 8 18 -5 -8 -3 13 19 8 14 11 -4 14 1 8 -10 -2 17 14 17 14 3 17 7 -0 10 5 10 11 13 16 11 -1 18 13 11 18 10 3 10 40 -7 -7 5 19 17
5 9 14 6 13 13 13 -1 8 3 8 -7 -1 16 4 10 8 4 1 -10 12 14 10 12 9 -8 11 15 13 11 13 1 9 15 18 20 13 14 15 31 21 17 8 10 -0 9 22 17 9 21 25 20 9 29
2 4 6 7 5 8 7 9 8 5 7 11 11 6 6 7 8 9 6 8 10 12 12 16 14 8 24 7 11 19 22 24 24 18 18 13 10 10 8 -7 12 10 4 17 17 9 6 17 7 -4 3 9 11 9
8 12 14 9 9 5 8 14 13 10 9 6 9 10 11 9 9 8 8 12 14 21 8 13 12 23 -2 1 -5 14 14 10 18 6 12 11 11 12 11 17 9 -1 10 20 19 7 7 22 23 31 30 30 31 31
17 10 5 8 10 7 8 5 9 8 9 15 16 14 20 22 24 26 25 25 14 21 7 -1 5 23 13 2 -1 17 19 13 17 20 21 23 16 5 5 3 12 8 22 22 12 20 12 14 8 8 8 6 5 5
21 20 19 17 14 -2 7 2 0 3 12 18 24 30 16 9 4 19 1 10 8 9 7 21 29 27 12 17 8 9 4 1 -2 -23 12 24 9 12 6 7 20 21 12 9 7 7 7 6 6 6 6 5 4 4
-3 1 8 7 11 26 10 1 11 13 19 21 12 9 12 19 17 15 23 26 26 25 26 26 18 11 11 8 0 1 2 7 21 40 33 25 21 20 19 16 9 6 4 3 4 4 3 2 1 2 2 2 2 2
23 18 10 8 9 19 19 10 12 15 15 17 21 1 6 21 21 16 24 14 17 28 32 10 5 4 2 14 29 26 23 16 9 5 2 3 3 3 2 1 0 1 2 2 2 2 2 2 2 3 3 3 4 6
36 29 24 22 20 19 15 8 13 15 13 1 11 9 1 -2 12 11 9 7 9 18 19 12 17 10 6 2 5 6 4 4 1 1 0 1 1 1 2 1 1 2 1 2 2 3 4 5 8 11 12 12 12 13
30 21 20 19 28 11 9 9 14 14 -1 -3 -1 6 4 3 3 9 3 1 9 10 11 13 9 7 6 3 1 2 2 3 3 3 3 4 4 5 6 5 5 5 4 6 8 9 12 12 14 17 21 23 26 26
31 29 27 24 13 9 9 6 4 0 -3 -2 0 -3 11 15 11 16 9 5 5 4 3 3 3 3 4 4 6 6 6 8 8 9 8 5 3 4 5 5 5 7 10 15 16 21 26 28 27 27 26 25 27 26
32 29 24 12 11 3 4 3 1 -1 -0 5 12 13 16 15 6 3 3 2 3 4 3 5 6 7 7 7 7 7 5 6 5 5 4 5 3 4 4 7 10 16 21 23 25 26 24 21 21 20 20 15 7 10
-2 14 1 5 4 -0 -3 -0 1 7 4 11 9 9 10 6 3 4 2 4 3 5 6 6 6 7 7 6 5 6 6 5 5 3 3 2 3 4 10 20 28 27 23 22 21 19 17 16 13 12 9 11 25 29
12 12 12 12 7 11 8 9 9 9 7 6 4 4 4 2 6 4 4 4 2 4 5 6 6 7 6 7 7 9 8 6 3 2 4 3 11 26 31 27 22 20 24 25 24 22 19 15 13 11 21 25 9 8
6 8 6 7 9 7 11 6 5 5 5 3 3 4 4 4 4 4 4 4 4 5 8 10 10 8 7 8 8 8 7 6 7 6 7 27 32 30 25 19 17 23 30 31 30 26 24 23 19 26 11 8 3 3
8 13 9 6 8 7 2 4 4 4 6 4 4 4 5 3 3 5 6 8 10 13 11 8 7 7 9 9 8 7 6 11 1 12 27 26 26 23 17 25 33 36 33 27 22 22 24 26 14 7 5 3 6 10
6 6 10 6 6 4 6 6 7 5 6 4 3 6 9 10 5 5 8 10 10 9 7 8 10 11 11 9 5 10 8 3 14 24 23 23 28 19 28 35 34 25 19 22 26 19 11 6 4 3 5 8 7 9
7 7 6 6 6 7 8 6 5 2 1 6 9 9 7 7 8 8 12 10 9 8 8 10 9 10 7 7 10 8 6 15 20 21 22 31 23 23 29 25 22 16 11 8 5 4 3 2 5 10 8 6 12 9
7 6 6 5 5 7 5 5 2 3 4 7 6 7 8 9 10 11 9 8 9 9 8 10 9 7 11 10 6 11 16 18 21 25 24 30 20 8 7 6 5 3 3 4 5 4 3 7 12 8 6 12 8 8
6 5 5 7 6 5 3 4 3 3 5 8 7 11 8 11 9 8 6 8 7 11 10 7 10 10 7 7 14 18 19 25 25 22 29 25 16 11 8 6 4 4 4 5 7 5 6 12 8 7 10 9 7 9
7 7 6 5 5 5 5 8 6 2 6 11 11 8 7 9 6 5 6 10 10 7 8 10 7 8 14 18 22 25 24 18 21 28 28 20 15 16 12 9 7 6 5 5 8 6 9 9 8 10 10 7 9 11
Height
5336 5336 5337 5339 5342 5346 5350 5354 5359 5364 5371 5377 5385 5392 5400 5408 5416 5424 5429 5434 5439 5445 5454 5460 5467 5473 5480 5485 5493 5500 5505 5510 5514 5518 5525 5530 5534 5540 5545 5549 5553 5556 5558 5561 5561 5565 5571 5572 5571 5568 5565 5568 5568 5573
5330 5331 5332 5334 5336 5339 5342 5346 5350 5356 5362 5368 5375 5383 5391 5399 5408 5416 5422 5428 5433 5439 5444 5451 5458 5466 5472 5479 5484 5489 5498 5503 5508 5511 5515 5519 5525 5532 5537 5543 5545 5549 5551 5552 5556 5561 5562 5563 5563 5560 5558 5562 5561 5563
5326 5326 5327 5328 5330 5332 5335 5338 5342 5347 5353 5359 5366 5373 5381 5389 5397 5406 5414 5420 5425 5430 5436 5443 5451 5457 5463 5470 5476 5484 5490 5496 5501 5504 5507 5512 5519 5523 5528 5532 5535 5538 5540 5545 5546 5554 5554 5556 5556 5551 5554 5552 5551 5554
5323 5322 5322 5322 5323 5324 5326 5329 5333 5337 5343 5349 5355 5362 5369 5377 5385 5393 5403 5410 5416 5423 5427 5435 5442 5449 5456 5461 5467 5475 5481 5486 5491 5496 5498 5505 5511 5514 5518 5520 5526 5529 5532 5536 5539 5543 5544 5548 5545 5547 5547 5543 5541 5542
5319 5317 5315 5314 5314 5314 5316 5319 5323 5328 5333 5339 5345 5352 5360 5368 5376 5384 5391 5400 5407 5414 5421 5426 5431 5439 5445 5452 5460 5467 5473 5478 5482 5487 5490 5498 5501 5505 5508 5512 5517 5519 5524 5524 5529 5531 5535 5537 5538 5539 5540 5538 5534 5535
5317 5315 5313 5310 5309 5308 5308 5310 5313 5317 5322 5328 5335 5343 5351 5359 5368 5375 5382 5390 5400 5404 5411 5417 5424 5429 5435 5443 5450 5458 5466 5471 5475 5479 5484 5490 5494 5496 5499 5503 5506 5508 5510 5512 5516 5519 5524 5526 5529 5529 5530 5529 5527 5529
5317 5314 5311 5308 5306 5305 5304 5304 5305 5307 5311 5318 5325 5335 5345 5353 5362 5371 5382 5393 5396 5400 5408 5413 5418 5423 5428 5435 5443 5450 5459 5466 5469 5473 5478 5483 5486 5487 5489 5494 5497 5500 5501 5503 5505 5508 5511 5516 5519 5519 5520 5521 5520 5519
5320 5318 5314 5311 5309 5306 5304 5302 5301 5303 5305 5308 5316 5330 5342 5352 5362 5371 5379 5386 5390 5398 5404 5410 5417 5420 5424 5432 5437 5445 5453 5459 5463 5468 5471 5474 5478 5479 5483 5489 5490 5491 5493 5493 5498 5499 5502 5506 5509 5510 5511 5512 5513 5512
5325 5323 5320 5318 5315 5312 5308 5303 5302 5305 5306 5309 5317 5330 5343 5353 5362 5371 5379 5384 5390 5398 5402 5409 5414 5417 5422 5427 5432 5440 5446 5454 5461 5464 5467 5470 5473 5474 5478 5481 5484 5486 5488 5488 5490 5492 5494 5497 5500 5501 5502 5504 5505 5506
5331 5330 5329 5326 5324 5322 5319 5315 5315 5316 5319 5324 5332 5340 5350 5358 5366 5373 5380 5387 5392 5397 5402 5405 5409 5414 5422 5426 5431 5439 5445 5452 5456 5460 5462 5464 5467 5470 5474 5475 5477 5480 5482 5483 5484 5485 5487 5489 5493 5494 5495 5497 5498 5498
5339 5338 5337 5336 5335 5333 5332 5331 5333 5334 5336 5340 5346 5353 5358 5364 5374 5381 5386 5389 5395 5399 5401 5406 5410 5415 5421 5423 5430 5437 5443 5449 5453 5456 5458 5459 5463 5466 5468 5470 5471 5474 5475 5477 5479 5480 5480 5482 5485 5487 5487 5488 5489 5490
5347 5348 5347 5347 5347 5346 5346 5346 5347 5350 5351 5356 5360 5364 5368 5374 5381 5385 5389 5393 5397 5401 5405 5409 5413 5418 5421 5425 5430 5436 5442 5447 5449 5452 5454 5456 5460 5462 5464 5466 5468 5468 5469 5471 5473 5475 5476 5476 5477 5478 5478 5480 5482 5482
5354 5355 5356 5356 5356 5358 5358 5358 5360 5363 5365 5367 5371 5374 5378 5382 5385 5388 5393 5398 5401 5405 5409 5413 5417 5419 5422 5427 5432 5436 5440 5443 5446 5448 5447 5453 5457 5458 5460 5462 5464 5464 5464 5466 5468 5469 5470 5470 5470 5471 5471 5472 5472 5472
5360 5361 5362 5363 5364 5365 5367 5369 5370 5372 5375 5377 5379 5381 5385 5389 5392 5395 5399 5402 5405 5408 5411 5414 5417 5420 5423 5427 5430 5433 5438 5442 5442 5445 5448 5450 5452 5454 5456 5459 5460 5460 5461 5462 5463 5463 5463 5463 5463 5462 5462 5462 5462 5463
5363 5365 5367 5369 5370 5371 5373 5375 5377 5380 5381 5383 5386 5388 5390 5393 5396 5398 5401 5404 5407 5410 5413 5415 5418 5422 5423 5426 5429 5433 5436 5438 5440 5443 5445 5447 5449 5452 5453 5455 5456 5457 5457 5457 5457 5456 5455 5455 5454 5454 5454 5453 5453 5452
5365 5368 5370 5372 5374 5376 5378 5380 5382 5384 5385 5387 5389 5391 5393 5396 5398 5400 5402 5405 5407 5410 5413 5416 5419 5422 5424 5427 5430 5432 5434 5436 5438 5439 5441 5444 5447 5449 5451 5452 5452 5451 5451 5450 5448 5448 5447 5446 5446 5445 5444 5443 5443 5443
5368 5370 5372 5374 5376 5379 5381 5384 5386 5388 5390 5391 5392 5393 5395 5397 5400 5402 5404 5407 5409 5413 5415 5417 5420 5422 5424 5426 5429 5431 5432 5435 5436 5438 5440 5441 5443 5445 5447 5447 5447 5446 5444 5443 5443 5442 5441 5440 5440 5440 5439 5437 5436 5435
5370 5372 5374 5376 5379 5382 5385 5387 5390 5392 5393 5394 5394 5396 5399 5401 5404 5406 5407 5409 5411 5413 5415 5417 5420 5423 5425 5428 5430 5432 5434 5436 5437 5437 5437 5437 5439 5441 5442 5442 5441 5440 5439 5438 5437 5437 5436 5435 5433 5432 5430 5428 5427 5425
5373 5374 5376 5378 5381 5383 5387 5391 5394 5395 5397 5399 5401 5403 5405 5406 5408 5408 5409 5409 5411 5412 5415 5418 5420 5423 5425 5427 5430 5432 5433 5434 5435 5434 5434 5433 5435 5437 5437 5438 5437 5436 5435 5433 5431 5430 5428 5427 5425 5423 5420 5417 5414 5411
5373 5373 5375 5378 5383 5386 5390 5394 5398 5401 5403 5405 5407 5409 5411 5411 5412 5412 5413 5414 5416 5417 5419 5421 5424 5426 5428 5430 5431 5433 5434 5435 5435 5435 5435 5435 5435 5435 5435 5433 5432 5430 5428 5425 5423 5420 5418 5415 5412 5409 5405 5402 5398 5394
5368 5370 5374 5378 5385 5389 5394 5400 5403 5407 5409 5412 5413 5414 5415 5417 5418 5420 5421 5421 5423 5424 5425 5427 5428 5430 5431 5432 5433 5434 5435 5435 5435 5435 5434 5433 5432 5431 5429 5427 5424 5421 5418 5414 5411 5408 5404 5401 5397 5393 5389 5384 5379 5374
5369 5373 5378 5383 5389 5394 5400 5405 5409 5413 5416 5417 5418 5420 5422 5423 5424 5425 5425 5427 5429 5430 5432 5432 5432 5433 5434 5435 5435 5435 5435 5434 5433 5432 5430 5428 5426 5423 5420 5417 5414 5410 5407 5403 5398 5392 5386 5381 5377 5373 5368 5364 5360 5355
5376 5379 5384 5390 5396 5402 5407 5411 5415 5417 5420 5422 5424 5426 5426 5427 5428 5429 5430 5432 5434 5435 5436 5436 5436 5436 5436 5435 5434 5433 5432 5430 5428 5426 5423 5420 5417 5413 5408 5403 5398 5393 5387 5382 5377 5371 5366 5361 5357 5353 5350 5347 5344 5341
5390 5393 5397 5402 5407 5411 5415 5418 5421 5424 5426 5427 5428 5429 5430 5431 5431 5431 5434 5435 5435 5436 5436 5435 5435 5434 5433 5431 5429 5427 5424 5422 5418 5414 5410 5406 5401 5397 5391 5386 5380 5373 5368 5362 5357 5353 5349 5345 5342 5340 5338 5336 5334 5331
5403 5407 5411 5414 5416 5419 5421 5423 5425 5428 5429 5430 5431 5433 5433 5434 5435 5435 5435 5435 5435 5434 5433 5432 5430 5428 5426 5424 5422 5419 5415 5412 5408 5403 5399 5393 5387 5381 5375 5368 5361 5354 5349 5344 5341 5338 5336 5334 5332 5330 5328 5326 5324 5322
5413 5416 5419 5420 5423 5425 5426 5427 5428 5430 5431 5433 5434 5435 5435 5435 5435 5434 5434 5433 5432 5430 5429 5427 5424 5422 5420 5417 5414 5410 5406 5402 5397 5391 5385 5379 5372 5364 5356 5349 5343 5338 5333 5330 5327 5325 5325 5324 5323 5322 5321 5319 5318 5316
5419 5420 5422 5424 5426 5428 5429 5430 5432 5433 5434 5434 5435 5435 5435 5434 5433 5433 5431 5429 5428 5425 5423 5421 5418 5415 5412 5408 5404 5399 5395 5390 5385 5379 5372 5364 5356 5349 5342 5336 5330 5324 5320 5317 5316 5315 5315 5316 5316 5315 5315 5314 5312 5310
5423 5424 5427 5428 5429 5431 5432 5433 5433 5433 5434 5434 5434 5433 5433 5432 5431 5429 5427 5425 5422 5420 5417 5414 5410 5407 5403 5399 5395 5390 5385 5379 5372 5365 5357 5349 5343 5337 5331 5325 5318 5314 5311 5310 5310 5310 5310 5310 5310 5311 5310 5308 5306 5303
5426 5428 5429 5430 5431 5432 5432 5433 5433 5433 5433 5433 5432 5431 5430 5428 5426 5424 5421 5419 5416 5413 5410 5406 5402 5398 5394 5389 5384 5378 5372 5366 5359 5352 5345 5340 5334 5329 5323 5318 5313 5311 5309 5308 5307 5307 5307 5308 5307 5306 5304 5301 5298 5295
5426 5427 5428 5429 5430 5431 5431 5431 5431 5431 5430 5429 5428 5426 5424 5422 5420 5417 5415 5412 5409 5406 5402 5398 5394 5388 5383 5377 5372 5366 5360 5353 5347 5341 5335 5331 5327 5324 5320 5316 5313 5311 5310 5308 5307 5307 5306 5304 5303 5300 5297 5294 5290 5286
5425 5426 5427 5428 5428 5428 5429 5429 5428 5427 5426 5424 5423 5421 5418 5416 5413 5410 5407 5404 5401 5397 5393 5388 5383 5378 5372 5366 5359 5353 5347 5340 5335 5330 5326 5322 5321 5319 5317 5315 5312 5310 5309 5307 5305 5304 5302 5299 5297 5294 5291 5287 5283 5278
5424 5424 5425 5425 5425 5425 5425 5424 5423 5422 5420 5418 5416 5414 5411 5409 5406 5403 5399 5395 5391 5387 5382 5377 5372 5367 5361 5355 5349 5342 5335 5330 5325 5321 5317 5315 5314 5313 5312 5310 5308 5307 5305 5303 5301 5299 5296 5293 5290 5286 5282 5278 5274 5269
5420 5421 5421 5421 5421 5420 5420 5419 5417 5416 5414 5412 5409 5407 5404 5401 5398 5395 5390 5386 5382 5377 5371 5366 5360 5354 5348 5342 5336 5331 5325 5321 5317 5313 5310 5309 5308 5306 5305 5304 5303 5301 5299 5297 5295 5292 5289 5286 5282 5278 5274 5269 5265 5260